Location: Newark
(40.7060°N, 73.9980°W)
Time: 23:35:39
(UTC+00:00)

X-37B - Pass Details

Date: 11 March 2021
Orbit: 380 x 394 km, 45.0° (Epoch: 07 April)

Event Time Altitude Azimuth Distance (km) Brightness Sun altitude
Rises 00:46:55 0° 234° (SW) 2,263 5.0 -21.4°
Reaches altitude 10° 00:49:00 10° 229° (SW) 1,414 3.8 -21.7°
Enters shadow 00:50:32 25° 218° (SW) 833 2.4 -22.0°
